Weather History for Melfa, VA

Change the Weather History Date:

Friday, October 5, 2012

  Actual Average (KWAL) Record (KWAL)
Temperature  
Mean Temperature 72 °F 63 °F  
Max Temperature 82 °F 72 °F 90 °F (2002)
Min Temperature 62 °F 54 °F 38 °F (1974)
Degree Days  
Heating Degree Days 0    
Month to date heating degree days  
Since 1 July heating degree days  
Cooling Degree Days 7    
Month to date cooling degree days  
Year to date cooling degree days  
Growing Degree Days 22 (Base 50)    
Moisture  
Dew Point 61 °F    
Average Humidity 76    
Maximum Humidity 100    
Minimum Humidity 35    
Precipitation  
Precipitation 0.00 in 0.10 in 0.01 in (2000)
Month to date precipitation 0.51  
Year to date precipitation 31.88  
Sea Level Pressure  
Sea Level Pressure 30.09 in    
Wind  
Wind Speed 2 mph (WNW)    
Max Wind Speed 10 mph    
Max Gust Speed -    
Visibility 7 miles    
Events Fog    
T = Trace of Precipitation, MM = Missing Value Source: NWS Daily Summary

Daily Weather History Graph

Daily Weather History Graph

Search for Another Location

Airport:

Trip Planner

Search our weather history database for the weather conditions in past years. The results will help you decide how hot, cold, wet, or windy it might be!

Date:

Astronomy

Oct. 05, 2012 Rise Set
Actual Time 7:02 AM EDT 6:39 PM EDT
Civil Twilight 6:36 AM EDT 7:05 PM EDT
Nautical Twilight 6:06 AM EDT 7:35 PM EDT
Astronomical Twilight 5:35 AM EDT 8:06 PM EDT
Moon 10:06 PM EDT (10/5) 12:03 PM EDT (10/5)
Length of Visible Light 12h 29m
Length of Day
11h 36m
Waning Gibbous, 74% of the Moon is Illuminated
Oct 5
Waning Gibbous
Oct 8
Last Quarter
Oct 15
New
Oct 21
First Quarter
Oct 29
Full

Hourly Weather History & Observations

Time (EDT) Temp. Heat Index Dew Point Humidity Pressure Visibility Wind Dir Wind Speed Gust Speed Precip Events Conditions
12:15 AM 68.0 °F - 66.2 °F 94% 30.13 in 2.5 mi West 4.6 mph - N/A   Clear
12:35 AM 68.0 °F - 66.2 °F 94% 30.12 in 4.0 mi Calm Calm - N/A   Clear
12:55 AM 66.2 °F - 64.4 °F 94% 30.12 in 4.0 mi Calm Calm - N/A   Clear
1:15 AM 66.2 °F - 66.2 °F 100% 30.12 in 3.0 mi Calm Calm - N/A   Clear
1:35 AM 66.2 °F - 64.4 °F 94% 30.12 in 2.5 mi Calm Calm - N/A   Clear
1:55 AM 66.2 °F - 64.4 °F 94% 30.12 in 4.0 mi Calm Calm - N/A   Clear
2:15 AM 66.2 °F - 64.4 °F 94% 30.12 in 0.2 mi Calm Calm - N/A Fog Fog
2:35 AM 66.2 °F - 64.4 °F 94% 30.12 in 1.8 mi Calm Calm - N/A   Mist
2:55 AM 66.2 °F - 64.4 °F 94% 30.12 in 1.2 mi Calm Calm - N/A   Mist
3:15 AM 64.4 °F - 62.6 °F 94% 30.11 in 2.0 mi Calm Calm - N/A   Mist
3:35 AM 64.4 °F - 64.4 °F 100% 30.11 in 0.5 mi NW 3.5 mph - N/A Fog Fog
3:55 AM 64.4 °F - 62.6 °F 94% 30.12 in 0.2 mi NW 3.5 mph - N/A Fog Fog
4:15 AM 64.4 °F - 62.6 °F 94% 30.12 in 1.0 mi NW 3.5 mph - N/A   Mist
4:35 AM 64.4 °F - 62.6 °F 94% 30.12 in 4.0 mi NW 3.5 mph - N/A   Mist
4:55 AM 64.4 °F - 62.6 °F 94% 30.12 in 1.2 mi NW 3.5 mph - N/A   Mist
5:15 AM 64.4 °F - 62.6 °F 94% 30.12 in 0.2 mi NW 3.5 mph - N/A Fog Fog
5:35 AM 64.4 °F - 62.6 °F 94% 30.13 in 1.5 mi Calm Calm - N/A   Mist
5:55 AM 64.4 °F - 62.6 °F 94% 30.13 in 3.0 mi Calm Calm - N/A   Clear
6:15 AM 64.4 °F - 62.6 °F 94% 30.14 in 2.5 mi Calm Calm - N/A   Clear
6:35 AM 62.6 °F - 62.6 °F 100% 30.14 in 2.5 mi Calm Calm - N/A   Clear
6:55 AM 62.6 °F - 60.8 °F 94% 30.13 in 0.5 mi Calm Calm - N/A Fog Fog
7:15 AM 62.6 °F - 60.8 °F 94% 30.13 in 1.8 mi Calm Calm - N/A   Mist
7:35 AM 62.6 °F - 60.8 °F 94% 30.13 in 0.8 mi Calm Calm - N/A   Mist
7:55 AM 62.6 °F - 60.8 °F 94% 30.14 in 3.0 mi Calm Calm - N/A   Mist
8:15 AM 62.6 °F - 60.8 °F 94% 30.14 in 1.8 mi Calm Calm - N/A   Mist
8:35 AM 64.4 °F - 62.6 °F 94% 30.14 in 4.0 mi Calm Calm - N/A   Mist
8:55 AM 68.0 °F - 66.2 °F 94% 30.14 in 7.0 mi Calm Calm - N/A   Clear
9:15 AM 69.8 °F - 68.0 °F 94% 30.14 in 7.0 mi Calm Calm - N/A   Clear
9:35 AM 71.6 °F - 68.0 °F 88% 30.14 in 10.0 mi Calm Calm - N/A   Clear
9:55 AM 73.4 °F - 66.2 °F 78% 30.14 in 10.0 mi Calm Calm - N/A   Clear
10:15 AM 75.2 °F - 62.6 °F 65% 30.14 in 10.0 mi North 3.5 mph - N/A   Clear
10:35 AM 75.2 °F - 62.6 °F 65% 30.14 in 10.0 mi NW 3.5 mph - N/A   Clear
10:55 AM 78.8 °F - 59.0 °F 51% 30.14 in 10.0 mi NW 10.4 mph - N/A   Clear
11:15 AM 78.8 °F - 57.2 °F 47% 30.14 in 10.0 mi North 10.4 mph - N/A   Clear
11:35 AM 80.6 °F 80.8 °F 57.2 °F 45% 30.13 in 10.0 mi NNW 9.2 mph - N/A   Clear
11:55 AM 80.6 °F 80.8 °F 57.2 °F 45% 30.13 in 10.0 mi NNW 6.9 mph - N/A   Clear
12:15 PM 80.6 °F 81.1 °F 59.0 °F 48% 30.12 in 10.0 mi North 9.2 mph - N/A   Clear
12:35 PM 82.4 °F 82.5 °F 59.0 °F 45% 30.11 in 10.0 mi North 5.8 mph - N/A   Clear
12:55 PM 80.6 °F 81.1 °F 59.0 °F 48% 30.11 in 10.0 mi NW 5.8 mph - N/A   Clear
1:15 PM 82.4 °F 82.9 °F 60.8 °F 48% 30.10 in 10.0 mi NNW 5.8 mph - N/A   Clear
1:35 PM 82.4 °F 82.9 °F 60.8 °F 48% 30.08 in 10.0 mi NNW 6.9 mph - N/A   Clear
1:55 PM 82.4 °F 82.9 °F 60.8 °F 48% 30.07 in 10.0 mi NNW 4.6 mph - N/A   Clear
2:35 PM 80.6 °F 80.8 °F 57.2 °F 45% 30.06 in 10.0 mi North 4.6 mph - N/A   Clear
2:55 PM 82.4 °F 82.0 °F 57.2 °F 42% 30.05 in 10.0 mi North 3.5 mph - N/A   Clear
3:15 PM 82.4 °F 81.7 °F 55.4 °F 39% 30.05 in 10.0 mi NNW 3.5 mph - N/A   Clear
3:35 PM 82.4 °F 81.7 °F 55.4 °F 39% 30.05 in 10.0 mi Calm Calm - N/A   Clear
3:55 PM 82.4 °F - 51.8 °F 35% 30.05 in 10.0 mi NNW 4.6 mph - N/A   Clear
4:15 PM 82.4 °F - 51.8 °F 35% 30.04 in 10.0 mi NW 4.6 mph - N/A   Clear
4:35 PM 80.6 °F - 51.8 °F 37% 30.04 in 10.0 mi NNE 3.5 mph - N/A   Clear
4:55 PM 80.6 °F 80.3 °F 53.6 °F 39% 30.03 in 10.0 mi North 3.5 mph - N/A   Clear
5:15 PM 80.6 °F 80.3 °F 53.6 °F 39% 30.03 in 10.0 mi Calm Calm - N/A   Clear
5:35 PM 80.6 °F 80.3 °F 53.6 °F 39% 30.04 in 10.0 mi Calm Calm - N/A   Clear
5:55 PM 78.8 °F - 60.8 °F 54% 30.03 in 10.0 mi Calm Calm - N/A   Clear
6:15 PM 73.4 °F - 62.6 °F 69% 30.04 in 10.0 mi Calm Calm - N/A   Clear
6:35 PM 71.6 °F - 64.4 °F 78% 30.04 in 10.0 mi Calm Calm - N/A   Clear
6:55 PM 69.8 °F - 64.4 °F 83% 30.04 in 10.0 mi South 3.5 mph - N/A   Clear
7:15 PM 69.8 °F - 62.6 °F 78% 30.04 in 10.0 mi South 3.5 mph - N/A   Clear
7:35 PM 68.0 °F - 62.6 °F 83% 30.04 in 10.0 mi Calm Calm - N/A   Clear
7:55 PM 66.2 °F - 62.6 °F 88% 30.04 in 10.0 mi South 3.5 mph - N/A   Clear
8:15 PM 66.2 °F - 62.6 °F 88% 30.04 in 10.0 mi South 3.5 mph - N/A   Clear
8:35 PM 66.2 °F - 62.6 °F 88% 30.04 in 10.0 mi South 4.6 mph - N/A   Clear
8:55 PM 66.2 °F - 62.6 °F 88% 30.04 in 10.0 mi SSW 3.5 mph - N/A   Clear
9:15 PM 66.2 °F - 62.6 °F 88% 30.03 in 10.0 mi South 3.5 mph - N/A   Clear
9:35 PM 66.2 °F - 62.6 °F 88% 30.03 in 7.0 mi South 4.6 mph - N/A   Clear
9:55 PM 64.4 °F - 62.6 °F 94% 30.03 in 10.0 mi SSW 4.6 mph - N/A   Clear
10:15 PM 66.2 °F - 62.6 °F 88% 30.03 in 10.0 mi SSW 4.6 mph - N/A   Clear
10:35 PM 66.2 °F - 62.6 °F 88% 30.03 in 10.0 mi SSW 6.9 mph - N/A   Clear
10:55 PM 68.0 °F - 62.6 °F 83% 30.02 in 10.0 mi SSW 6.9 mph - N/A   Clear
11:35 PM 66.2 °F - 62.6 °F 88% 30.02 in 10.0 mi SSW 8.1 mph - N/A   Clear
11:55 PM 68.0 °F - 62.6 °F 83% 30.01 in 10.0 mi SSW 8.1 mph - N/A   Clear